Charlevoix, MI

9:46 AM EST on February 23, 2017 (GMT -0500)
Charlevoix Municipal

Weather History for KCVX - August, 2012

Change the Weather History Date:

Sunday, August 26, 2012

  Actual Average Record
Temperature  
Mean Temperature 78 °F -  
Max Temperature 87 °F 82 °F 87 °F (2012)
Min Temperature 70 °F 59 °F 46 °F (2008)
Cooling Degree Days 14    
Growing Degree Days 28 (Base 50)    
Moisture  
Dew Point 64 °F    
Average Humidity 71    
Maximum Humidity 91    
Minimum Humidity 35    
Precipitation  
Precipitation 0.00 in - - ()
Sea Level Pressure  
Sea Level Pressure 30.04 in    
Wind  
Wind Speed 5 mph (South)    
Max Wind Speed 20 mph    
Max Gust Speed 25 mph    
Visibility 10 miles    
Events      
Averages and records for this station are not official NWS values.
T = Trace of Precipitation, MM = Missing Value Source: NWS Daily Summary

Daily Weather History Graph

Daily Weather History Graph

Search for Another Location

Airport or City:

Trip Planner

Search our weather history database for the weather conditions in past years. The results will help you decide how hot, cold, wet, or windy it might be!

Date:

Astronomy

Aug. 26, 2012 Rise Set
Actual Time 6:56 AM EDT 8:28 PM EDT
Civil Twilight 6:25 AM EDT 8:59 PM EDT
Nautical Twilight 5:47 AM EDT 9:36 PM EDT
Astronomical Twilight 5:07 AM EDT 10:16 PM EDT
Moon 5:06 PM EDT (8/26) 1:26 AM EDT (8/26)
Length of Visible Light 14h 34m
Length of Day
13h 32m
Waxing Gibbous, 73% of the Moon is Illuminated
Aug 26
Waxing Gibbous
Aug 31
Full
Sep 8
Last Quarter
Sep 15
New
Sep 22
First Quarter

Hourly Weather History & Observations

Time (EDT) Temp. Heat Index Dew Point Humidity Pressure Visibility Wind Dir Wind Speed Gust Speed Precip Events Conditions
12:55 AM 72.1 °F - 61.3 °F 69% 30.07 in 10.0 mi SSE 5.8 mph - N/A   Clear
1:14 AM 72.7 °F - 61.3 °F 67% 30.07 in 10.0 mi SSE 4.6 mph - N/A   Clear
1:34 AM 72.5 °F - 61.3 °F 68% 30.07 in 10.0 mi SSE 4.6 mph - N/A   Clear
1:54 AM 72.3 °F - 61.7 °F 69% 30.07 in 10.0 mi SSE 4.6 mph - N/A   Clear
2:14 AM 72.3 °F - 61.9 °F 70% 30.07 in 10.0 mi SSE 4.6 mph - N/A   Clear
2:34 AM 72.5 °F - 62.2 °F 70% 30.07 in 10.0 mi SE 4.6 mph - N/A   Clear
2:54 AM 72.0 °F - 62.2 °F 71% 30.06 in 10.0 mi SE 5.8 mph - N/A   Clear
3:14 AM 71.1 °F - 62.6 °F 75% 30.06 in 10.0 mi SE 4.6 mph - N/A   Clear
3:34 AM 70.9 °F - 62.6 °F 75% 30.06 in 10.0 mi SE 3.5 mph - N/A   Clear
3:54 AM 70.7 °F - 62.6 °F 75% 30.05 in 10.0 mi SE 4.6 mph - N/A   Clear
4:14 AM 70.5 °F - 62.8 °F 76% 30.06 in 10.0 mi SE 4.6 mph - N/A   Clear
4:34 AM 70.3 °F - 62.8 °F 77% 30.06 in 10.0 mi SE 4.6 mph - N/A   Clear
4:54 AM 70.2 °F - 62.6 °F 77% 30.05 in 10.0 mi SE 4.6 mph - N/A   Scattered Clouds
5:14 AM 70.3 °F - 62.6 °F 76% 30.05 in 10.0 mi SE 5.8 mph - N/A   Scattered Clouds
5:34 AM 70.0 °F - 62.6 °F 77% 30.06 in 10.0 mi SE 5.8 mph - N/A   Clear
6:14 AM 70.9 °F - 62.2 °F 74% 30.05 in 10.0 mi SE 5.8 mph - N/A   Scattered Clouds
6:34 AM 70.7 °F - 62.1 °F 74% 30.06 in 10.0 mi SE 5.8 mph - N/A   Clear
6:54 AM 70.7 °F - 62.1 °F 74% 30.06 in 10.0 mi SE 5.8 mph - N/A   Clear
7:14 AM 70.9 °F - 62.1 °F 74% 30.06 in 10.0 mi SE 4.6 mph - N/A   Clear
7:34 AM 71.2 °F - 61.9 °F 72% 30.06 in 10.0 mi SE 4.6 mph - N/A   Mostly Cloudy
8:14 AM 72.5 °F - 61.7 °F 69% 30.07 in 10.0 mi SSE 4.6 mph - N/A   Scattered Clouds
8:34 AM 73.4 °F - 61.7 °F 67% 30.07 in 10.0 mi SSE 5.8 mph - N/A   Scattered Clouds
8:54 AM 74.1 °F - 61.7 °F 65% 30.07 in 10.0 mi SSE 6.9 mph - N/A   Clear
9:14 AM 74.8 °F - 61.7 °F 64% 30.07 in 10.0 mi SSE 6.9 mph - N/A   Scattered Clouds
9:34 AM 76.5 °F - 62.4 °F 62% 30.07 in 10.0 mi South 6.9 mph - N/A   Scattered Clouds
9:54 AM 77.9 °F - 62.1 °F 58% 30.07 in 10.0 mi SSW 6.9 mph - N/A   Scattered Clouds
10:14 AM 80.2 °F 81.4 °F 62.2 °F 54% 30.07 in 10.0 mi South 6.9 mph - N/A   Scattered Clouds
10:34 AM 79.7 °F - 61.7 °F 54% 30.06 in 10.0 mi South 8.1 mph - N/A   Clear
10:54 AM 81.3 °F 82.2 °F 61.3 °F 51% 30.06 in 10.0 mi South 6.9 mph - N/A   Clear
11:14 AM 82.6 °F 83.2 °F 61.7 °F 49% 30.06 in 10.0 mi SSW 9.2 mph - N/A   Clear
11:34 AM 83.1 °F 83.9 °F 62.2 °F 49% 30.06 in 10.0 mi SW 5.8 mph - N/A   Clear
11:55 AM 83.3 °F 84.1 °F 62.1 °F 49% 30.06 in 10.0 mi SSW 5.8 mph - N/A   Clear
12:14 PM 83.5 °F 84.1 °F 61.7 °F 48% 30.05 in 10.0 mi South 4.6 mph - N/A   Scattered Clouds
12:34 PM 86.0 °F 86.1 °F 61.0 °F 43% 30.05 in 10.0 mi SSW 5.8 mph - N/A   Scattered Clouds
12:55 PM 85.6 °F 85.0 °F 59.0 °F 40% 30.04 in 10.0 mi SSW 8.1 mph - N/A   Clear
1:14 PM 87.8 °F 87.1 °F 59.4 °F 38% 30.03 in 10.0 mi SSW 8.1 mph - N/A   Clear
1:34 PM 87.4 °F 86.1 °F 57.0 °F 35% 30.02 in 10.0 mi SW 9.2 mph - N/A   Clear
1:54 PM 84.6 °F 85.0 °F 61.9 °F 46% 30.04 in 10.0 mi West 19.6 mph 25.3 mph N/A   Scattered Clouds
2:14 PM 79.0 °F - 62.6 °F 57% 30.04 in 10.0 mi West 15.0 mph - N/A   Scattered Clouds
2:34 PM 78.1 °F - 63.7 °F 61% 30.05 in 10.0 mi WNW 8.1 mph 16.1 mph N/A   Clear
2:54 PM 77.4 °F - 66.2 °F 68% 30.04 in 10.0 mi West 13.8 mph - N/A   Clear
3:14 PM 74.8 °F - 66.6 °F 75% 30.03 in 10.0 mi West 11.5 mph - N/A   Clear
3:34 PM 74.3 °F - 67.3 °F 79% 30.03 in 10.0 mi West 10.4 mph - N/A   Clear
3:54 PM 75.0 °F - 67.8 °F 78% 30.04 in 7.0 mi West 4.6 mph - N/A   Scattered Clouds
4:34 PM 75.6 °F - 68.0 °F 77% 30.02 in 10.0 mi WNW 3.5 mph - N/A   Scattered Clouds
4:54 PM 74.3 °F - 68.0 °F 81% 30.02 in 10.0 mi Calm Calm - N/A   Mostly Cloudy
5:14 PM 72.9 °F - 67.5 °F 83% 30.02 in 7.0 mi North 5.8 mph - N/A   Overcast
5:35 PM 72.5 °F - 67.8 °F 85% 30.02 in 7.0 mi North 4.6 mph - N/A   Overcast
5:54 PM 72.1 °F - 68.0 °F 87% 30.03 in 7.0 mi NW 4.6 mph - N/A   Overcast
6:14 PM 72.3 °F - 67.8 °F 86% 30.03 in 7.0 mi Calm Calm - N/A   Overcast
6:34 PM 72.9 °F - 67.6 °F 84% 30.02 in 7.0 mi Calm Calm - N/A   Mostly Cloudy
6:54 PM 73.4 °F - 67.1 °F 81% 30.02 in 10.0 mi SSW 4.6 mph - N/A   Scattered Clouds
7:14 PM 73.0 °F - 67.1 °F 82% 30.01 in 10.0 mi SW 3.5 mph - N/A   Clear
7:34 PM 72.9 °F - 67.1 °F 82% 30.00 in 10.0 mi Calm Calm - N/A   Clear
7:54 PM 72.5 °F - 67.1 °F 83% 30.00 in 10.0 mi SSW 3.5 mph - N/A   Clear
8:14 PM 72.3 °F - 67.3 °F 84% 29.99 in 10.0 mi Calm Calm - N/A   Clear
8:34 PM 72.0 °F - 67.5 °F 86% 30.00 in 7.0 mi Calm Calm - N/A   Scattered Clouds
8:54 PM 71.6 °F - 67.6 °F 87% 30.00 in 10.0 mi Calm Calm - N/A   Mostly Cloudy
9:14 PM 71.6 °F - 67.6 °F 87% 30.00 in 10.0 mi Calm Calm - N/A   Overcast
9:34 PM 71.4 °F - 68.0 °F 89% 30.00 in 7.0 mi Calm Calm - N/A   Overcast
9:54 PM 71.4 °F - 68.4 °F 90% 30.00 in 7.0 mi Calm Calm - N/A   Overcast
10:14 PM 71.2 °F - 68.4 °F 91% 30.00 in 7.0 mi Calm Calm - N/A   Overcast
10:34 PM 71.6 °F - 68.2 °F 89% 30.00 in 7.0 mi South 3.5 mph - N/A   Overcast
10:54 PM 71.8 °F - 67.8 °F 87% 30.00 in 10.0 mi Calm Calm - N/A   Overcast
11:14 PM 71.6 °F - 67.5 °F 87% 30.00 in 10.0 mi South 3.5 mph - N/A   Overcast
11:34 PM 71.4 °F - 66.7 °F 85% 30.00 in 10.0 mi SSW 6.9 mph - N/A   Overcast